Date,TemperatureHighF,TemperatureAvgF,TemperatureLowF,DewpointHighF,DewpointAvgF,DewpointLowF,HumidityHigh,HumidityAvg,HumidityLow,PressureMaxIn,PressureMinIn,WindSpeedMaxMPH,WindSpeedAvgMPH,GustSpeedMaxMPH,PrecipitationSumIn
2013-1-1,51.6,44.1,36.1,39.2,35.7,31.2,84,73,60,30.18,30.10,7,1,8,0.00
2013-1-2,53.6,43.3,30.9,38.8,34.5,27.2,87,72,54,30.15,30.03,4,0,6,0.00
2013-1-3,54.3,44.7,32.2,39.5,35.6,28.2,87,71,53,30.17,30.07,4,0,6,0.00
2013-1-4,55.9,46.4,35.1,40.9,37.5,30.7,87,72,55,30.21,30.08,4,0,5,0.00
2013-1-5,54.9,50.4,39.6,48.0,45.0,35.4,88,82,74,30.17,29.98,8,0,15,0.10
2013-1-6,48.7,45.7,40.6,45.5,42.3,37.6,92,88,83,30.11,29.97,12,1,13,0.10
2013-1-7,56.3,47.9,37.4,47.0,43.0,35.0,93,83,68,30.17,30.06,7,1,11,0.00
2013-1-8,58.8,49.7,40.1,49.3,44.2,37.1,93,82,66,30.16,30.02,7,1,11,0.00
2013-1-9,53.4,47.3,40.1,48.4,43.2,37.0,92,86,81,30.06,29.91,18,2,21,0.00
2013-1-10,48.7,44.4,37.2,38.9,36.2,33.4,90,73,61,30.11,29.99,14,4,20,0.00
2013-1-11,50.2,44.1,32.4,40.1,36.5,28.4,87,75,60,30.19,30.03,19,2,21,0.00
2013-1-12,48.0,42.3,33.6,36.2,30.0,25.8,89,63,43,30.17,30.04,6,1,11,0.00
2013-1-13,47.3,38.8,28.9,38.5,28.6,23.2,88,68,39,30.19,30.07,11,1,14,0.00
2013-1-14,48.9,42.2,34.7,27.6,22.3,17.9,72,46,35,30.31,30.11,16,2,18,0.00
2013-1-15,51.8,43.3,31.3,31.4,28.8,23.7,76,58,40,30.39,30.30,7,1,10,0.00
2013-1-16,55.4,45.8,31.3,36.3,32.7,27.0,85,62,43,30.34,30.17,6,0,8,0.00
2013-1-17,60.4,47.9,32.2,42.8,36.3,28.2,87,66,43,30.19,30.05,5,0,6,0.00
2013-1-18,59.9,48.8,33.6,41.2,37.6,29.6,88,67,48,30.14,30.03,5,0,5,0.00
2013-1-19,61.0,49.7,34.7,42.0,38.2,30.9,87,66,46,30.17,30.05,3,0,6,0.00
2013-1-20,61.7,52.1,34.7,41.1,37.9,30.5,86,60,43,30.14,30.04,7,1,7,0.00
2013-1-21,63.1,50.4,33.6,39.6,36.7,29.0,86,62,39,30.10,29.98,5,0,8,0.00
2013-1-22,61.7,52.3,34.9,42.0,39.5,30.2,84,63,43,30.02,29.91,5,0,8,0.00
2013-1-23,56.1,52.2,46.2,48.8,45.9,40.1,90,79,69,29.99,29.86,8,0,12,0.04
2013-1-24,54.9,53.0,50.2,52.7,50.9,47.7,94,93,90,30.09,29.97,0,0,0,0.27
2013-1-25,62.4,57.2,52.9,57.3,53.9,51.2,95,89,79,30.09,29.95,6,1,12,0.02
2013-1-26,57.2,52.0,43.3,52.3,43.2,38.7,92,73,55,30.01,29.92,14,3,20,0.00
2013-1-27,53.2,47.9,39.9,41.2,37.4,32.4,90,68,45,30.09,29.99,12,3,14,0.00
2013-1-28,55.4,49.1,37.0,42.5,39.5,33.5,89,70,54,30.21,30.07,14,3,17,0.00
2013-1-29,55.2,48.9,37.8,43.8,40.9,34.4,91,75,57,30.28,30.18,14,2,16,0.00
2013-1-30,64.9,54.3,39.0,46.9,42.4,36.1,92,66,46,30.25,30.15,6,1,10,0.00
2013-1-31,63.7,52.7,37.9,45.0,42.1,33.8,88,69,47,30.22,30.08,7,0,11,0.00
2013-2-1,65.8,54.6,39.4,48.6,44.7,35.8,89,71,50,30.13,30.01,7,1,10,0.00
2013-2-2,56.8,52.5,45.1,49.3,47.3,41.1,90,83,76,30.21,30.12,6,1,7,0.00
2013-2-3,56.8,51.6,44.2,46.1,43.4,40.0,86,74,62,30.17,30.05,12,2,13,0.00
2013-2-4,56.1,49.6,38.8,48.6,45.0,35.6,92,85,75,30.12,29.98,5,1,8,0.00
2013-2-5,55.2,51.5,46.2,46.4,44.6,41.4,88,78,70,30.07,29.99,13,3,19,0.00
2013-2-6,57.4,49.9,38.1,45.1,41.5,35.1,91,74,54,30.13,30.03,7,1,10,0.00
2013-2-7,54.1,48.1,37.4,46.1,40.7,33.9,88,76,58,30.10,29.92,11,1,12,0.02
2013-2-8,51.6,46.0,38.7,42.0,38.7,34.1,92,76,62,29.94,29.86,12,2,18,0.06
2013-2-9,55.6,47.4,33.1,39.2,32.6,29.9,90,59,38,30.02,29.90,10,1,11,0.00
2013-2-10,58.1,50.1,33.8,40.8,36.4,29.2,85,61,44,30.06,29.92,10,1,15,0.00
2013-2-11,60.4,51.6,35.2,39.6,33.6,29.2,87,53,31,30.14,29.97,14,2,19,0.00
2013-2-12,60.3,51.6,36.3,42.6,38.0,30.7,81,61,41,30.27,30.14,9,1,12,0.00
2013-2-13,63.1,53.1,37.9,44.3,41.4,33.7,87,66,43,30.25,30.12,10,2,14,0.00
2013-2-14,67.6,57.3,39.0,46.0,41.8,34.9,86,58,39,30.16,30.04,12,2,18,0.00
2013-2-15,71.1,60.1,41.2,45.2,42.9,35.5,82,55,36,30.19,30.10,8,1,11,0.00
2013-2-16,67.8,58.0,42.6,47.8,45.1,37.2,84,63,44,30.14,29.96,7,1,11,0.00
2013-2-17,62.8,54.4,45.5,47.4,44.5,40.1,88,70,54,29.98,29.87,10,1,14,0.00
2013-2-18,52.3,49.1,40.6,44.8,40.7,36.2,86,73,63,29.98,29.89,7,1,28,0.00
2013-2-19,50.7,44.4,39.9,42.5,38.9,35.3,86,81,72,29.90,29.69,14,2,24,0.26
2013-2-20,56.1,48.4,35.2,40.7,37.5,32.2,90,67,43,29.98,29.74,17,3,20,0.00
2013-2-21,57.6,50.2,37.4,40.3,36.6,33.6,88,61,42,30.09,29.97,12,3,16,0.00
2013-2-22,61.5,52.5,36.3,42.1,39.0,31.7,85,62,41,30.18,30.08,10,2,16,0.00
2013-2-23,57.2,51.4,45.7,43.8,38.5,34.7,86,62,44,30.17,30.06,16,3,22,0.00
2013-2-24,61.3,53.5,41.5,37.2,31.0,25.6,71,45,27,30.16,30.06,14,4,23,0.00
2013-2-25,61.0,52.5,37.4,43.9,39.4,29.2,79,62,45,30.20,30.07,12,2,18,0.00
2013-2-26,64.6,54.6,37.9,39.9,33.6,28.5,86,48,26,30.12,30.03,13,3,19,0.00
2013-2-27,67.8,56.9,37.9,42.8,36.9,27.4,77,50,23,30.29,30.11,12,2,16,0.00
2013-2-28,65.8,57.6,43.0,50.4,47.8,38.2,84,71,56,30.38,30.28,12,2,18,0.00
2013-3-1,70.3,60.9,44.2,52.8,49.5,40.6,89,68,51,30.34,30.14,9,1,12,0.00
2013-3-2,71.8,62.8,48.7,53.6,49.9,44.4,85,64,49,30.15,29.96,8,1,12,0.00
2013-3-3,63.3,56.8,50.5,51.3,47.2,44.3,85,71,55,30.02,29.94,14,3,17,0.00
2013-3-4,59.5,52.6,46.6,47.3,44.1,41.1,81,73,63,30.07,29.96,14,1,19,0.00
2013-3-5,59.4,52.9,43.5,44.4,42.1,39.0,85,67,56,30.00,29.80,52,2,52,0.02
2013-3-6,58.5,53.0,44.4,45.9,42.3,38.3,89,68,53,29.99,29.79,11,1,16,0.10
2013-3-7,58.8,52.1,40.5,44.7,42.0,36.6,89,70,45,29.91,29.75,10,0,11,0.35
2013-3-8,58.5,52.4,45.0,47.2,42.8,40.1,91,71,55,29.99,29.75,12,2,18,0.05
2013-3-9,64.2,55.7,43.5,44.5,41.5,37.9,82,60,40,30.22,29.99,15,3,18,0.00
2013-3-10,68.7,59.5,40.6,46.4,40.4,36.2,86,52,32,30.26,30.14,12,2,13,0.00
2013-3-11,70.9,59.7,41.7,46.0,43.0,35.7,82,56,37,30.17,30.01,13,2,17,0.00
2013-3-12,70.9,61.4,48.4,51.6,48.9,43.5,87,65,47,30.07,29.97,8,1,13,0.00
2013-3-13,74.8,65.3,48.4,54.7,51.7,44.1,89,63,45,30.07,29.96,16,1,16,0.00
2013-3-14,70.3,61.7,50.4,55.8,49.2,43.7,89,65,41,30.07,29.99,14,2,17,0.00
2013-3-15,69.6,60.9,46.6,49.5,47.4,42.0,86,63,42,30.05,29.96,10,2,16,0.00
2013-3-16,70.2,60.5,50.7,52.3,46.9,42.4,87,62,37,30.03,29.95,13,2,20,0.00
2013-3-17,66.7,58.0,45.0,46.9,42.8,37.7,85,59,35,30.06,29.95,13,3,24,0.00
2013-3-18,65.8,59.3,43.2,46.8,44.8,38.0,83,60,46,30.04,29.94,14,1,14,0.00
2013-3-19,71.2,60.3,49.6,49.4,45.5,41.2,85,60,37,30.05,29.97,14,2,18,0.06
2013-3-20,67.1,59.9,53.2,54.7,52.2,48.4,91,76,61,30.05,29.97,16,2,18,0.04
2013-3-21,63.1,56.5,47.5,48.8,44.0,40.0,79,64,49,30.05,29.91,14,3,19,0.00
2013-3-22,67.1,59.1,-4.2,42.9,34.0,27.3,83,41,24,30.01,29.92,17,4,20,0.00
2013-3-23,67.8,59.9,41.2,41.1,35.1,29.0,79,42,24,30.04,29.94,12,2,14,0.00
2013-3-24,68.7,57.9,42.6,47.0,44.1,36.2,80,61,40,30.00,29.87,13,2,15,0.00
2013-3-25,61.0,54.9,45.1,48.1,44.9,40.6,86,69,59,29.93,29.87,15,2,17,0.00
2013-3-26,66.4,58.2,47.5,48.6,45.4,41.2,81,63,51,29.93,29.83,16,2,16,0.00
2013-3-27,71.2,61.5,48.4,54.4,50.0,42.8,84,67,53,29.93,29.86,15,1,24,0.00
2013-3-28,73.2,64.3,56.3,55.4,52.7,49.3,84,67,50,29.99,29.91,16,2,19,0.00
2013-3-29,78.1,67.4,55.0,56.4,53.2,50.0,84,62,43,29.99,29.91,17,2,17,0.00
2013-3-30,73.4,63.7,56.1,55.0,51.4,48.8,80,65,44,29.98,29.88,17,3,25,0.00
2013-3-31,69.4,63.2,54.3,55.0,51.5,49.2,90,67,54,29.97,29.90,13,2,20,0.06
2013-4-1,68.5,61.0,55.2,55.4,52.0,47.9,91,73,56,30.06,29.96,14,2,18,0.08
2013-4-2,68.7,60.5,49.8,53.3,51.1,45.8,87,72,57,30.09,29.99,16,2,16,0.00
2013-4-3,77.5,63.5,49.3,54.9,51.4,45.6,89,67,42,30.06,29.87,18,1,19,0.00
2013-4-4,68.7,62.4,52.5,57.4,53.6,47.9,90,74,64,30.02,29.92,12,1,16,0.06
2013-4-5,66.4,61.2,54.9,53.1,50.6,47.4,80,68,60,30.09,30.02,12,3,18,0.00
2013-4-6,66.7,60.3,50.7,54.4,51.4,46.1,85,73,62,30.10,30.04,12,3,19,0.00
2013-4-7,67.8,60.5,51.4,54.2,49.4,44.2,86,68,48,30.09,29.79,20,4,26,0.02
2013-4-8,65.7,58.1,48.7,49.1,38.6,34.9,82,50,33,29.92,29.75,23,7,29,0.04
2013-4-9,73.2,64.9,47.8,45.0,39.6,34.6,76,42,25,29.99,29.91,19,4,25,0.00
2013-4-10,82.6,70.5,50.4,51.4,48.7,42.2,75,48,31,30.07,29.97,21,4,23,0.00
2013-4-11,69.1,61.9,51.6,49.6,46.2,43.5,80,58,40,30.00,29.76,18,3,20,0.00
2013-4-12,74.5,63.8,45.7,51.0,47.3,40.2,83,57,37,29.83,29.74,16,2,19,0.00
2013-4-13,69.1,60.5,47.5,50.0,44.5,40.1,83,57,43,29.82,29.75,19,4,21,0.00
2013-4-14,66.0,59.2,45.7,45.3,41.4,36.3,82,53,35,29.84,29.78,17,4,24,0.00
2013-4-15,61.5,54.3,47.1,46.4,37.7,32.7,77,54,40,29.88,29.77,17,3,23,0.00
2013-4-16,65.8,57.7,41.5,40.4,35.8,28.9,80,47,26,30.04,29.88,12,3,20,0.00
2013-4-17,68.7,62.0,46.0,39.7,33.1,28.5,67,36,23,30.15,30.04,16,3,22,0.00
2013-4-18,75.0,65.0,44.8,42.9,38.7,34.5,72,41,24,30.17,30.09,10,2,11,0.00
2013-4-19,82.0,69.4,48.0,49.9,46.2,38.8,71,46,27,30.14,29.99,10,1,19,0.00
2013-4-20,79.0,69.0,52.3,51.0,46.2,43.9,80,46,30,30.01,29.90,17,2,17,0.00
2013-4-21,84.7,73.0,50.4,53.2,46.5,40.8,79,42,22,29.94,29.84,8,1,10,0.00
2013-4-22,87.1,76.0,53.2,52.0,45.6,39.0,70,37,19,29.87,29.73,11,2,16,0.00
2013-4-23,82.0,70.4,55.0,47.9,40.7,30.6,72,38,17,29.83,29.76,9,2,11,0.00
2013-4-24,72.3,64.1,51.6,51.9,49.5,45.2,81,60,47,29.86,29.75,8,1,12,0.00
2013-4-25,71.2,62.6,51.6,53.0,50.1,46.0,81,64,51,30.05,29.86,11,2,13,0.00
2013-4-26,70.7,62.5,54.0,52.5,50.0,47.1,78,64,50,30.13,30.04,10,2,11,0.00
2013-4-27,74.1,64.6,52.9,54.0,51.1,46.5,80,63,46,30.14,29.99,9,1,11,0.00
2013-4-28,81.0,70.5,54.1,55.7,52.1,48.8,83,54,39,30.00,29.79,8,1,10,0.00
2013-4-29,87.4,74.9,56.1,58.4,52.2,48.7,80,48,27,29.81,29.67,9,2,15,0.00
2013-4-30,81.0,70.9,54.5,53.9,47.2,42.4,79,45,27,29.76,29.69,15,2,17,0.00
2013-5-1,84.7,75.8,55.6,46.8,35.2,25.8,65,26,15,30.00,29.74,14,3,17,0.00
2013-5-2,90.9,78.5,55.0,50.0,41.1,34.4,68,30,15,30.06,29.97,14,2,18,0.00
2013-5-3,88.9,77.8,55.6,45.9,36.4,26.9,54,25,11,30.00,29.71,14,2,18,0.00
2013-5-4,88.5,68.7,56.1,49.9,44.0,38.6,64,45,22,29.70,29.46,8,1,21,0.00
2013-5-5,72.9,65.4,54.1,50.6,48.3,44.1,70,59,48,29.72,29.52,14,1,27,0.00
2013-5-6,73.0,65.9,54.7,52.4,49.7,47.6,77,61,51,29.87,29.72,17,2,18,0.00
2013-5-7,73.9,67.6,56.8,53.0,50.7,47.7,76,60,49,29.96,29.86,14,2,17,0.00
2013-5-8,68.2,62.3,56.3,54.1,51.4,48.7,82,73,63,30.07,29.96,12,3,18,0.00
2013-5-9,68.2,61.2,54.9,52.3,50.1,47.8,83,72,62,30.10,30.01,14,3,20,0.00
2013-5-10,70.3,63.7,55.0,55.9,52.7,48.6,83,73,64,30.10,30.02,12,2,15,0.00
2013-5-11,84.4,72.4,54.9,59.3,54.9,49.8,85,61,43,30.07,29.94,12,1,13,0.00
2013-5-12,79.5,70.8,55.4,61.4,54.8,47.8,84,63,48,30.05,29.95,10,2,17,0.00
2013-5-13,77.5,68.9,55.2,58.7,54.3,49.5,85,65,52,30.01,29.88,9,2,14,0.00
2013-5-14,79.2,68.0,54.3,57.1,51.1,44.5,85,61,48,29.94,29.86,11,2,19,0.00
2013-5-15,73.0,64.4,51.1,49.4,46.7,44.5,80,58,42,29.98,29.94,12,2,20,0.00
2013-5-16,70.9,62.9,54.7,56.6,51.2,46.1,88,71,57,29.96,29.88,17,2,21,0.00
2013-5-17,70.0,63.3,54.7,50.0,46.4,42.3,77,60,49,30.01,29.92,17,3,20,0.00
2013-5-18,73.2,65.7,46.8,51.8,47.6,39.6,78,58,45,30.05,29.99,17,3,18,0.00
2013-5-19,81.7,70.5,52.3,53.0,46.8,42.4,83,50,34,30.04,29.88,14,3,20,0.00
2013-5-20,89.2,75.9,52.7,54.3,46.2,37.8,76,44,22,29.93,29.82,19,3,21,0.00
2013-5-21,71.2,64.4,54.7,51.5,45.3,37.3,75,55,45,29.93,29.85,20,4,24,0.00
2013-5-22,67.3,59.3,48.9,38.4,35.4,30.6,66,47,32,29.93,29.83,16,4,20,0.00
2013-5-23,50.9,50.7,50.7,38.3,37.4,32.0,67,67,67,29.86,29.86,0,0,0,0.00
2013-5-24,-200.0,0.0,157.6,99.9,99.9,99.9,0,0,100,30.05,29.98,0,0,0,7.42
2013-5-25,-200.0,0.0,157.6,99.9,99.9,99.9,0,0,100,30.06,30.03,0,0,0,0.00
2013-5-27,70.5,65.7,62.4,57.1,53.8,52.8,81,71,62,30.17,30.11,14,2,15,0.00
2013-5-28,70.3,65.4,60.1,57.8,54.7,49.1,87,74,57,30.11,30.04,16,4,20,0.00
2013-5-29,72.1,66.7,57.9,57.5,52.1,46.3,78,64,55,30.10,30.05,16,4,23,0.00
2013-5-30,80.1,73.2,60.1,52.9,47.7,45.6,66,47,39,30.18,30.00,11,6,13,0.00
2013-5-31,75.4,51.9,-22.0,52.6,27.3,-68.4,56,42,5,29.98,29.68,5,1,5,0.00
2013-6-1,89.2,69.2,-22.0,59.0,42.9,-68.4,59,41,5,29.87,29.68,11,2,11,0.00
2013-6-2,81.3,71.0,56.8,57.7,52.4,47.7,81,55,42,29.82,29.70,11,2,16,0.00
2013-6-3,81.7,70.6,54.7,57.8,54.1,47.4,79,58,44,29.88,29.75,13,2,16,0.00
2013-6-4,76.6,69.3,55.8,57.7,54.5,48.0,75,61,51,29.98,29.88,12,2,17,0.00
2013-6-5,74.1,67.2,57.7,57.2,54.0,50.2,77,65,54,30.02,29.94,11,1,14,0.00
2013-6-6,79.2,70.0,56.8,58.8,55.4,49.5,80,62,49,30.01,29.86,10,1,13,0.00
2013-6-7,89.4,78.2,55.4,62.3,57.8,49.3,80,52,39,29.91,29.73,10,1,13,0.00
2013-6-8,91.0,79.6,62.1,63.8,57.5,51.8,69,49,37,29.81,29.70,11,2,15,0.00
2013-6-9,82.0,71.5,59.9,59.3,54.8,50.9,76,58,45,29.87,29.81,18,4,25,0.00
2013-6-10,76.5,69.6,57.6,55.3,53.1,49.0,73,58,48,29.95,29.86,12,2,20,0.00
2013-6-11,74.5,68.8,60.1,58.2,55.2,51.2,75,64,56,30.01,29.92,9,2,13,0.00
2013-6-12,78.1,70.1,54.7,55.3,49.9,44.2,81,51,38,30.03,29.91,21,3,22,0.00
2013-6-13,79.5,70.3,51.4,49.9,47.7,42.7,73,47,32,30.12,30.00,17,3,19,0.00
2013-6-14,86.7,76.9,54.5,55.5,48.2,40.6,80,41,20,30.01,29.83,16,3,19,0.00
2013-6-15,76.6,67.6,55.2,55.9,52.2,47.8,76,60,47,30.01,29.85,12,2,17,0.00
2013-6-16,77.9,70.0,52.3,55.2,52.2,46.0,81,55,44,30.11,30.01,17,3,19,0.00
2013-6-17,75.0,68.8,56.3,57.2,54.7,48.8,77,63,54,30.13,30.05,18,5,23,0.00
2013-6-18,73.0,66.3,56.5,53.3,48.9,46.2,78,56,41,30.09,30.01,16,3,20,0.00
2013-6-19,74.1,67.0,54.9,50.7,47.4,43.4,74,51,37,30.07,30.01,20,5,22,0.00
2013-6-20,78.6,69.8,52.2,51.6,47.9,44.4,77,47,36,30.03,29.96,20,4,22,0.00
2013-6-21,83.5,70.3,53.4,53.3,50.5,45.7,76,52,31,29.99,29.93,16,3,21,0.00
2013-6-22,84.9,72.9,54.3,55.6,51.8,47.3,79,51,30,29.96,29.86,22,3,24,0.00
2013-6-23,72.9,68.4,59.5,61.3,58.1,51.6,83,72,63,29.90,29.81,7,1,8,0.00
2013-6-24,74.3,67.7,62.4,63.2,59.9,57.7,90,79,67,29.90,29.78,8,1,11,0.00
2013-6-25,78.3,72.8,63.1,65.1,62.5,57.7,84,72,65,29.98,29.90,10,2,11,0.00
2013-6-26,84.9,77.2,66.0,66.6,63.2,58.6,84,65,54,30.06,29.96,8,2,13,0.00
2013-6-27,87.1,78.7,63.7,64.4,59.9,55.9,87,55,37,30.12,30.00,8,2,10,0.00
2013-6-28,94.6,83.9,64.2,64.7,61.1,56.0,84,49,35,30.04,29.88,8,1,11,0.00
2013-6-29,98.2,87.7,64.8,63.6,57.8,52.3,76,39,23,29.93,29.79,10,2,11,0.00
2013-6-30,90.7,81.2,65.8,62.8,59.0,56.5,77,49,34,29.86,29.76,9,2,10,0.00
2013-7-1,93.7,82.9,63.7,63.9,59.8,55.4,78,48,32,29.84,29.79,8,1,11,0.00
2013-7-2,98.4,83.7,68.5,65.9,62.1,58.3,73,51,29,29.91,29.82,8,1,10,0.00
2013-7-3,93.2,81.5,64.9,64.5,60.7,57.7,78,52,32,29.91,29.73,7,1,9,0.00
2013-7-4,93.0,83.6,69.1,66.4,61.1,55.9,73,49,37,29.79,29.67,7,1,10,0.00
2013-7-5,77.5,71.6,62.1,57.5,55.2,50.7,69,58,50,29.83,29.72,10,2,11,0.00
2013-7-6,83.1,72.4,57.4,58.5,55.5,49.8,77,58,41,29.83,29.72,8,1,10,0.00
2013-7-7,83.5,73.3,56.1,59.0,56.1,49.3,79,57,41,29.86,29.75,7,1,10,0.00
2013-7-8,83.5,73.8,55.8,59.4,56.8,49.3,79,58,43,29.97,29.85,7,1,9,0.00
2013-7-9,88.9,78.3,60.4,62.5,57.7,53.6,82,52,34,30.02,29.90,8,1,10,0.00
2013-7-10,82.0,73.1,60.6,61.1,58.0,53.5,80,61,48,29.98,29.88,7,1,9,0.00
2013-7-11,80.8,69.7,61.0,59.0,55.8,51.6,81,64,48,29.94,29.87,7,2,10,0.00
2013-7-12,81.3,71.9,55.0,58.8,55.4,48.6,80,58,43,29.94,29.86,10,1,11,0.00
2013-7-13,85.3,75.7,55.6,58.4,54.8,48.8,79,51,34,29.96,29.87,9,2,10,0.00
2013-7-14,78.6,71.3,57.7,59.0,56.5,51.3,80,62,50,30.01,29.88,8,1,10,0.00
2013-7-15,76.5,68.2,58.8,57.9,55.1,52.3,81,65,52,29.91,29.82,9,2,10,0.00
2013-7-16,74.8,68.1,59.2,56.2,54.8,50.9,77,65,52,30.02,29.85,11,2,12,0.00
2013-7-17,76.3,68.2,60.6,59.4,56.2,53.0,83,68,56,30.08,30.01,10,1,13,0.00
2013-7-18,83.1,72.7,59.4,59.3,56.4,53.0,83,60,39,30.06,29.91,11,1,15,0.00
2013-7-19,84.0,73.5,59.4,60.6,57.5,52.8,80,60,45,29.94,29.80,8,0,11,0.00
2013-7-20,85.6,73.7,59.7,61.8,57.4,51.7,79,59,45,29.85,29.70,5,0,11,0.00
2013-7-21,82.9,74.5,56.5,60.7,57.3,49.4,78,57,39,29.85,29.73,11,1,15,0.00
2013-7-22,80.1,72.8,60.1,61.4,59.2,53.5,79,64,53,29.94,29.85,8,1,9,0.00
2013-7-23,83.8,74.7,64.6,62.8,59.2,56.6,80,61,48,29.99,29.91,7,1,10,0.00
2013-7-24,86.5,78.4,62.4,63.0,56.4,48.1,82,50,27,29.99,29.87,7,2,10,0.00
2013-7-25,83.1,74.9,60.6,61.4,57.9,53.0,78,58,42,30.00,29.91,9,1,11,0.00
2013-7-26,82.8,73.7,59.9,61.6,59.0,53.7,81,63,49,30.08,29.97,8,1,11,0.00
2013-7-27,82.0,72.5,58.8,61.2,58.4,52.7,81,64,46,30.01,29.83,8,1,12,0.00
2013-7-28,83.3,71.7,58.3,60.5,56.9,51.8,80,62,46,29.86,29.77,14,1,14,0.00
2013-7-29,83.5,71.1,56.3,58.7,55.8,49.5,79,61,42,29.98,29.81,8,1,12,0.00
2013-7-30,80.4,70.9,55.0,59.1,56.5,48.6,83,63,48,30.07,29.98,8,1,11,0.00
2013-7-31,80.2,71.3,56.7,58.5,55.2,49.9,79,59,47,30.08,29.99,9,2,15,0.00
2013-8-1,75.9,68.9,54.1,55.6,53.8,47.4,81,61,49,30.08,29.95,15,2,15,0.00
2013-8-2,79.0,70.5,53.8,58.3,54.9,48.1,83,60,45,29.96,29.88,10,2,11,0.00
2013-8-3,81.0,70.7,55.8,58.4,56.0,49.4,81,62,44,29.95,29.88,8,1,10,0.00
2013-8-4,77.2,67.4,58.5,58.9,55.4,51.6,83,68,54,29.99,29.93,9,1,11,0.00
2013-8-5,76.8,67.1,59.5,59.1,55.5,52.5,81,69,55,30.01,29.92,9,1,10,0.00
2013-8-6,75.0,68.1,59.5,57.9,55.7,53.0,81,67,55,30.02,29.95,12,2,15,0.00
2013-8-7,76.3,69.3,61.5,57.9,56.1,53.3,80,65,52,30.07,30.00,10,1,15,0.00
2013-8-8,77.9,68.3,60.6,59.6,56.5,53.4,80,68,53,30.01,29.92,11,2,12,0.00
2013-8-9,74.8,68.5,59.9,58.4,56.4,52.7,80,68,55,29.97,29.90,8,1,11,0.00
2013-8-10,76.3,68.8,61.0,60.4,57.7,54.4,81,70,58,30.02,29.97,9,2,10,0.00
2013-8-11,75.7,69.9,62.4,60.1,57.9,55.1,81,68,57,30.00,29.93,10,1,11,0.00
2013-8-12,81.5,73.1,59.9,61.0,57.3,53.5,84,61,45,29.96,29.90,7,1,11,0.00
2013-8-13,88.2,75.5,57.0,60.2,55.5,49.2,84,54,27,29.98,29.87,8,1,11,0.00
2013-8-14,81.1,72.8,57.4,59.8,57.8,50.9,83,62,44,29.99,29.89,9,2,12,0.00
2013-8-15,82.0,75.3,63.1,65.8,63.3,57.2,83,69,56,29.96,29.88,9,1,14,0.00
2013-8-16,84.4,74.8,64.8,66.6,61.4,55.7,88,66,48,29.97,29.91,8,1,11,0.00
2013-8-17,80.4,71.9,61.7,62.0,59.3,55.2,82,67,52,29.96,29.86,7,1,9,0.00
2013-8-18,91.2,78.6,58.8,63.2,59.7,54.3,89,56,33,29.88,29.73,7,0,8,0.00
2013-8-19,89.1,79.1,65.5,64.9,59.9,55.2,71,54,42,29.88,29.75,8,1,11,0.00
2013-8-20,85.8,75.6,62.6,61.2,58.6,53.6,75,58,38,29.87,29.77,9,1,11,0.00
2013-8-21,79.3,72.4,58.1,60.0,57.6,51.2,84,62,52,29.91,29.81,10,1,12,0.00
2013-8-22,75.4,68.1,61.7,59.3,56.7,54.3,81,69,57,29.93,29.87,9,2,14,0.00
2013-8-23,74.3,68.6,61.5,59.2,56.7,53.9,78,68,58,29.90,29.80,8,1,12,0.00
2013-8-24,80.4,72.9,55.9,61.1,58.5,51.2,86,63,50,29.87,29.81,10,2,13,0.00
2013-8-25,85.3,74.3,65.1,64.7,61.5,57.3,79,67,49,29.91,29.84,9,2,14,0.00
2013-8-26,77.0,71.7,65.3,61.0,56.9,53.7,81,62,52,29.97,29.87,11,2,15,0.00
2013-8-27,80.8,62.0,-22.0,59.8,52.3,0.0,79,61,48,30.00,29.84,6,1,11,0.00
2013-8-28,81.3,73.3,63.3,63.1,61.3,56.5,86,69,52,29.98,29.89,9,1,11,0.00
2013-8-29,81.0,73.5,66.0,65.2,62.2,60.3,86,71,55,30.08,29.97,10,1,13,0.00
2013-8-30,88.2,78.0,65.7,66.1,60.8,57.1,88,59,37,30.06,29.94,11,1,12,0.00
2013-8-31,79.7,73.5,66.0,61.4,59.0,57.1,84,63,50,30.01,29.91,9,1,12,0.00
2013-9-1,81.1,75.3,65.8,60.6,57.9,54.4,79,57,43,29.97,29.88,12,2,13,0.00
2013-9-2,81.1,71.5,67.6,64.8,62.3,60.7,84,76,56,29.97,29.90,8,1,9,0.00
2013-9-3,78.8,72.4,63.0,61.5,56.4,52.0,87,60,42,30.02,29.94,12,2,16,0.00
2013-9-4,78.4,71.5,60.4,59.7,57.3,54.8,87,64,46,30.05,29.96,11,2,15,0.00
2013-9-5,78.1,71.9,62.1,58.6,55.7,53.4,86,59,46,30.02,29.96,12,2,14,0.00
2013-9-6,88.0,77.0,59.2,58.9,55.4,52.0,85,50,32,30.00,29.81,6,1,9,0.00
2013-9-7,90.5,77.7,61.7,56.4,54.6,49.5,73,48,25,29.88,29.78,7,0,9,0.00
2013-9-8,88.0,77.5,62.2,62.1,57.0,53.6,80,52,32,29.87,29.74,7,0,8,0.00
2013-9-9,89.1,77.3,62.4,62.6,58.3,53.8,83,55,34,29.81,29.70,10,1,13,0.00
2013-9-10,82.8,73.2,61.2,61.2,57.1,54.6,83,60,43,29.89,29.74,9,0,16,0.00
2013-9-11,77.7,71.0,62.4,59.9,58.0,54.5,83,66,53,29.99,29.89,9,1,12,0.00
2013-9-12,76.8,69.7,64.0,62.5,59.5,57.5,85,73,62,29.97,29.90,9,1,14,0.00
2013-9-13,75.6,68.5,61.5,61.2,58.1,54.8,86,72,62,29.92,29.79,10,1,16,0.00
2013-9-14,71.8,66.2,61.3,59.5,57.0,54.8,85,75,67,29.84,29.75,7,1,13,0.00
2013-9-15,77.5,70.2,60.4,59.2,57.8,54.3,85,67,53,29.87,29.80,12,1,17,0.00
2013-9-16,80.2,71.5,63.3,99.9,58.2,54.0,84,65,52,29.88,29.82,12,1,16,0.00
2013-9-17,74.5,68.2,57.4,56.9,53.7,50.1,87,62,44,29.89,29.85,10,2,14,0.00
2013-9-18,81.7,70.6,54.9,56.4,51.5,47.0,88,55,31,29.90,29.81,8,1,11,0.00
2013-9-19,85.8,73.6,53.4,54.1,49.4,45.4,80,46,25,29.85,29.74,7,1,9,0.00
2013-9-20,75.9,69.3,55.2,60.2,56.8,48.8,83,67,57,29.86,29.77,0,0,0,0.00
2013-9-21,70.9,64.5,57.4,60.2,56.4,52.5,87,78,64,29.90,29.82,0,0,0,0.16
2013-9-22,72.1,65.8,55.9,57.1,52.7,49.2,92,66,46,30.00,29.90,0,0,0,0.00
2013-9-23,79.3,69.7,54.1,59.7,56.5,49.5,89,66,46,30.01,29.92,0,0,0,0.00
2013-9-24,73.9,67.5,57.4,57.7,52.5,47.4,91,61,47,29.99,29.93,0,0,0,0.00
2013-9-25,69.1,63.4,55.9,49.8,46.0,44.0,78,55,43,29.93,29.83,9,2,12,0.00
2013-9-26,73.0,65.2,50.4,47.2,43.8,38.8,84,49,30,29.97,29.83,11,2,11,0.00
2013-9-27,76.6,67.1,48.6,47.9,42.4,39.3,83,44,27,30.07,29.96,13,1,13,0.00
2013-9-28,82.0,69.9,51.6,54.9,46.3,37.4,75,48,21,30.08,29.97,9,1,12,0.00
2013-9-29,75.9,69.3,55.6,58.8,57.2,50.8,87,68,54,30.09,30.04,7,1,12,0.00
2013-9-30,76.1,70.1,61.5,60.8,58.7,47.3,90,70,58,30.06,29.96,10,1,10,0.00
2013-10-1,72.7,65.4,52.5,51.3,49.7,45.4,79,59,44,30.01,29.91,9,1,14,0.00
2013-10-2,76.3,64.9,53.2,54.6,49.2,44.2,86,59,41,29.99,29.91,13,1,16,0.00
2013-10-3,71.8,65.1,49.8,46.3,40.4,35.9,81,43,29,30.04,29.92,10,2,14,0.00
2013-10-4,79.3,70.8,59.0,38.3,34.5,30.7,46,28,17,30.08,29.94,10,1,16,0.00
2013-10-5,83.5,69.9,49.6,43.0,38.3,31.6,64,35,17,30.17,30.07,6,0,8,0.00
2013-10-6,83.1,73.5,53.4,43.1,40.1,35.8,59,32,18,30.09,29.97,7,0,10,0.00
2013-10-7,81.1,69.8,53.2,44.3,39.1,29.3,63,36,15,29.97,29.85,12,0,14,0.00
2013-10-8,74.1,64.2,49.3,99.9,46.3,39.9,74,55,34,29.88,29.72,9,0,12,0.00
2013-10-9,67.3,61.0,51.8,49.6,46.0,43.2,81,60,47,29.73,29.62,7,0,11,0.00
2013-10-10,72.3,63.3,52.2,51.2,48.3,42.9,80,61,42,29.99,29.73,13,0,16,0.00
2013-10-11,67.3,59.7,48.4,52.1,49.8,43.4,87,72,58,30.06,29.96,6,0,10,0.00
2013-10-12,70.2,60.7,50.9,52.9,48.4,43.6,90,67,49,29.98,29.88,8,0,15,0.00
2013-10-13,71.2,62.6,50.9,51.3,45.7,10.3,87,57,41,30.04,29.92,11,1,14,0.00
2013-10-14,76.3,65.7,47.7,48.3,43.5,39.9,83,48,29,30.09,29.96,6,0,10,0.00
2013-10-15,77.9,67.5,49.1,44.7,40.7,37.3,74,41,24,30.01,29.91,12,0,12,0.00
2013-10-16,80.6,69.7,49.1,43.5,41.6,38.5,71,39,24,30.05,29.98,8,0,12,0.00
2013-10-17,79.0,68.5,49.3,44.1,40.0,34.1,68,39,20,30.05,29.93,9,0,10,0.00
2013-10-18,77.7,66.2,47.1,48.5,44.8,37.9,72,49,29,30.03,29.94,7,0,9,0.00
2013-10-19,77.5,67.5,55.0,53.1,49.9,45.5,83,56,37,30.05,29.96,3,0,7,0.00
2013-10-20,73.6,63.9,52.0,56.2,52.0,46.7,91,68,45,30.00,29.87,9,0,9,0.00
2013-10-21,70.5,61.9,54.1,56.5,53.8,50.1,92,76,56,29.98,29.88,5,0,8,0.00
2013-10-22,71.2,62.4,54.7,56.9,54.4,50.9,92,76,57,29.99,29.88,3,0,9,0.00
2013-10-23,66.0,59.3,54.3,57.4,54.2,51.6,95,84,69,29.96,29.86,7,0,8,0.00
2013-10-24,59.9,56.1,51.1,53.5,51.7,48.5,92,85,78,30.08,29.96,3,0,6,0.00
2013-10-25,68.4,60.2,51.1,54.9,52.6,48.8,94,77,58,30.14,30.04,7,0,8,0.00
2013-10-26,73.6,62.5,46.6,56.9,52.1,44.7,95,71,46,30.12,29.97,4,0,9,0.00
2013-10-27,62.8,58.0,53.8,54.8,51.1,47.3,95,78,65,30.01,29.69,14,1,15,0.00
2013-10-28,63.7,58.4,53.8,49.9,48.2,46.2,80,69,55,29.83,29.68,10,0,14,0.00
2013-10-29,63.3,57.4,49.8,52.7,48.9,44.9,91,74,62,30.01,29.83,0,0,6,0.00
2013-10-30,65.3,57.4,43.7,51.3,48.0,41.5,94,72,54,30.11,30.02,3,0,7,0.00
2013-10-31,69.6,60.5,44.4,51.7,48.0,41.7,92,65,46,30.14,30.02,6,0,9,0.00
2013-11-1,74.1,62.3,45.1,49.7,46.8,41.8,89,59,37,30.10,29.97,2,0,5,0.00
2013-11-2,68.9,60.2,48.4,54.4,50.5,43.6,88,71,51,29.99,29.89,10,0,14,0.00
2013-11-3,63.5,57.5,48.4,47.2,40.7,34.3,83,56,35,29.99,29.89,5,0,12,0.00
2013-11-4,65.1,56.9,44.4,44.8,39.5,32.9,91,55,30,30.02,29.88,13,0,14,0.00
2013-11-5,71.2,61.5,46.9,41.6,38.9,36.8,74,45,30,30.19,30.02,9,0,14,0.00
2013-11-6,71.4,61.8,47.5,44.5,42.5,38.2,76,51,33,30.21,30.12,0,0,4,0.00
2013-11-7,72.0,61.2,49.6,46.9,44.5,36.6,78,56,28,30.13,30.03,6,0,11,0.00
2013-11-8,68.9,59.8,49.1,54.6,49.7,44.6,92,71,49,30.06,29.93,3,0,7,0.00
2013-11-9,72.0,60.7,47.1,52.6,47.9,42.4,91,65,36,30.01,29.91,8,0,12,0.00
2013-11-10,63.3,56.5,50.2,52.7,50.2,44.6,93,80,63,30.09,29.99,4,0,4,0.00
2013-11-11,65.8,60.3,50.2,54.5,51.9,47.4,90,74,60,30.12,30.03,0,0,4,0.00
2013-11-12,70.0,62.0,52.0,55.1,50.5,46.3,89,67,48,30.22,30.12,1,0,6,0.00
2013-11-13,72.0,62.3,48.6,56.1,52.8,45.7,93,73,46,30.22,30.06,3,0,6,0.00
2013-11-14,64.0,57.3,49.3,56.3,52.6,46.5,94,85,74,30.09,29.87,0,0,6,0.00
2013-11-15,63.5,55.0,44.2,50.3,45.3,41.7,96,72,48,29.81,29.69,3,0,9,0.00
2013-11-16,61.9,54.9,45.7,50.6,47.5,40.8,94,77,55,29.90,29.74,6,0,18,0.00
2013-11-17,61.9,55.3,48.6,52.5,49.0,45.5,98,80,66,30.05,29.89,8,0,11,0.00
2013-11-18,60.6,54.8,47.3,50.6,48.5,45.1,96,80,67,30.10,30.03,5,0,9,0.00
2013-11-19,64.2,59.1,48.7,55.8,53.9,45.3,95,83,71,30.06,29.92,6,0,8,0.20
2013-11-20,62.4,57.9,53.8,60.4,56.6,52.9,99,96,88,29.92,29.81,5,0,11,0.33
2013-11-21,59.9,55.9,51.6,52.9,36.3,30.4,97,49,34,29.94,29.86,15,2,17,0.00
2013-11-22,66.4,57.2,46.6,33.4,29.1,24.5,59,36,21,29.99,29.85,7,1,15,0.00
2013-11-23,63.3,54.6,43.5,44.4,39.5,32.8,78,58,35,30.06,29.91,3,0,5,0.00
2013-11-24,63.3,54.9,45.5,46.6,42.2,39.5,85,64,42,30.20,30.06,4,0,8,0.00
2013-11-25,63.3,53.8,40.8,46.2,43.6,37.5,90,70,50,30.28,30.20,7,0,7,0.00
2013-11-26,46.6,46.3,46.0,41.4,41.1,40.9,82,82,82,30.21,30.21,0,0,0,0.00
2013-11-27,63.7,52.4,43.3,50.0,45.3,40.3,91,78,58,29.96,29.78,0,0,0,0.00
2013-11-28,65.7,53.1,45.7,49.8,45.0,42.1,90,76,49,30.04,29.82,0,0,0,0.00
2013-11-29,68.7,52.8,43.5,48.2,43.3,40.1,89,72,42,30.18,30.04,0,0,0,0.00
2013-11-30,63.7,49.7,41.5,47.9,42.9,38.0,88,78,55,30.21,30.13,2,0,2,0.00
2013-12-1,66.4,56.3,42.1,49.8,46.1,39.1,91,70,50,30.29,30.16,7,0,8,0.00
2013-12-2,61.9,55.2,41.9,52.1,49.8,38.9,91,82,69,30.17,29.94,6,1,8,0.00
2013-12-3,54.7,50.6,43.5,52.2,39.1,30.5,94,65,55,29.94,29.80,9,1,12,0.00
2013-12-4,49.8,43.1,33.8,33.2,27.4,24.3,83,56,37,30.03,29.88,6,0,10,0.00
2013-12-5,49.8,41.0,28.9,28.5,24.6,21.8,82,54,34,30.12,30.03,5,0,6,0.00
2013-12-6,52.3,46.6,31.3,44.8,34.6,22.8,88,64,49,30.14,29.88,5,0,9,0.02
2013-12-7,48.7,44.0,35.4,46.8,32.3,28.3,93,64,49,30.19,29.87,11,2,14,0.15
2013-12-8,45.0,39.3,31.8,32.2,26.2,21.5,86,60,44,30.26,30.15,4,0,7,0.00
2013-12-9,48.7,39.8,27.3,27.1,24.8,22.6,81,56,37,30.35,30.26,1,0,5,0.00
2013-12-10,50.4,41.0,28.2,31.8,29.4,23.6,82,64,46,30.35,30.15,1,0,2,0.00
2013-12-11,54.3,44.1,31.8,35.0,31.6,26.9,83,63,39,30.19,30.11,2,0,4,0.00
2013-12-12,56.5,45.9,31.8,37.3,33.5,27.4,85,63,43,30.21,30.11,0,0,0,0.00
2013-12-13,56.1,47.0,33.6,43.8,38.6,29.2,87,73,56,30.30,30.18,4,0,7,0.00
2013-12-14,58.5,47.8,34.3,42.2,37.7,30.9,89,69,50,30.33,30.24,4,0,7,0.00
2013-12-15,59.5,49.8,34.0,42.2,38.4,30.5,88,66,48,30.30,30.17,4,0,5,0.00
2013-12-16,63.5,51.4,37.2,41.5,38.8,33.4,87,64,44,30.19,30.05,0,0,4,0.00
2013-12-17,63.1,53.3,39.0,44.3,41.3,34.0,85,65,47,30.11,29.97,0,0,1,0.00
2013-12-18,61.3,52.1,44.2,47.1,44.3,40.3,87,75,54,29.97,29.74,9,0,9,0.00
2013-12-19,56.8,50.2,41.0,44.1,37.9,31.0,90,64,46,29.87,29.67,12,1,12,0.00
2013-12-20,58.3,49.4,35.2,31.0,23.0,16.6,72,38,20,29.94,29.86,6,0,11,0.00
2013-12-21,59.4,50.6,37.0,47.8,41.0,25.1,85,70,53,30.01,29.91,11,1,14,0.00
2013-12-22,64.2,53.7,38.1,46.0,40.1,35.2,93,62,38,30.22,30.02,7,0,11,0.00
2013-12-23,62.1,52.3,39.7,44.8,40.4,34.6,85,65,48,30.32,30.22,5,0,6,0.00
2013-12-24,66.7,53.4,38.5,45.7,40.8,34.9,88,64,44,30.27,30.12,5,0,8,0.00
2013-12-25,63.3,52.0,37.0,43.6,39.7,32.1,83,64,44,30.22,30.11,4,0,5,0.00
2013-12-26,64.0,52.6,37.4,43.9,40.2,33.6,88,64,44,30.18,30.08,3,0,6,0.00
2013-12-27,59.4,50.6,36.9,44.1,40.6,32.7,86,69,54,30.17,30.03,4,0,6,0.00
2013-12-28,62.4,51.0,35.4,43.4,37.3,31.9,89,61,38,30.08,29.95,6,0,8,0.00
2013-12-29,64.0,52.8,35.8,38.2,31.6,29.1,81,47,27,30.10,30.01,8,0,8,0.00
2013-12-30,64.2,51.9,35.8,37.8,35.2,28.8,76,55,35,30.19,30.09,7,0,7,0.00
2013-12-31,58.5,49.4,37.9,45.2,40.0,30.2,88,71,55,30.20,30.07,7,0,9,0.00
2014-1-1,61.0,51.0,35.6,42.3,37.7,31.5,87,62,41,30.13,30.04,5,0,6,0.00
2014-1-2,63.1,52.4,37.8,43.7,39.2,32.5,83,62,43,30.10,29.98,1,0,5,0.00